Theta_e
311 309 308 310 312 315 315 315 315 314 312 312 312 312 314 315 316 316 316 323 321 318 316 319 319 319 319 320 319 319 313 314 317 320 320 320 342 343 343 342 339 340 339 334 337
311 310 308 310 313 315 315 316 316 314 312 311 311 312 314 315 316 317 321 324 321 316 318 320 320 319 319 320 320 317 312 317 318 319 318 319 332 344 341 339 338 339 338 334 337
310 311 308 310 314 315 316 317 317 313 312 311 311 312 314 316 321 328 326 324 320 316 319 319 319 319 319 320 319 318 315 315 322 321 322 320 324 341 340 340 338 339 338 335 336
311 311 309 308 314 315 316 317 317 313 313 311 312 313 315 319 326 325 323 319 316 316 319 319 320 319 317 317 319 319 319 320 322 322 322 320 321 327 339 338 336 337 339 338 336
311 311 310 309 313 315 316 317 317 314 313 312 313 314 316 322 327 321 319 317 315 315 319 320 320 319 317 318 320 318 320 321 322 322 322 322 322 320 336 339 338 337 336 340 343
309 310 310 309 311 314 316 317 317 315 314 314 314 315 320 324 323 319 319 321 320 320 321 321 320 321 320 319 319 320 320 320 322 322 322 321 321 322 334 342 337 340 342 342 341
308 309 310 309 311 315 316 317 317 316 315 315 315 316 321 323 323 321 321 320 320 320 320 321 320 321 320 319 322 321 320 317 320 321 321 322 319 321 324 334 343 343 343 342 341
308 309 310 310 314 315 316 317 317 316 315 316 320 326 326 323 323 322 321 320 319 320 320 321 321 321 320 321 320 318 316 316 317 319 321 319 316 318 327 338 341 341 339 338 337
310 308 309 310 314 314 317 318 317 316 316 318 328 328 329 322 321 322 322 321 320 320 320 320 320 320 321 316 315 314 317 317 317 317 319 318 319 321 337 341 340 338 337 332 332
315 310 309 312 314 316 318 319 319 318 318 320 321 323 326 323 323 323 321 321 321 321 320 320 319 315 313 314 317 319 320 318 318 320 319 322 322 320 341 339 337 335 333 330 329
312 314 310 312 317 318 322 325 322 324 322 321 322 324 323 322 321 322 321 321 321 321 319 320 315 317 317 317 318 320 320 319 320 320 322 323 323 338 337 336 334 330 328 328 325
315 312 313 312 319 318 321 320 320 320 320 321 322 323 323 321 322 321 321 321 321 319 319 317 318 318 319 320 321 320 321 320 321 320 319 320 321 331 335 333 331 328 325 325 325
316 315 313 317 319 321 321 321 320 321 320 320 323 323 322 321 321 321 321 321 320 320 319 317 319 320 321 320 321 319 319 320 322 320 319 318 316 336 333 330 328 326 324 323 324
316 316 313 314 319 320 320 319 320 320 318 323 324 321 321 321 321 322 322 322 321 321 320 320 321 321 319 322 319 320 320 320 320 317 318 316 315 333 333 330 327 325 323 323 324
317 316 316 312 317 322 321 320 320 322 328 327 320 322 321 322 321 320 321 322 321 321 320 320 321 321 320 321 322 322 320 320 320 318 315 315 313 319 331 331 328 326 325 321 319
317 316 316 314 315 322 321 320 320 319 325 322 321 320 319 321 322 321 322 321 321 321 321 321 322 322 321 320 321 320 320 318 315 313 315 316 315 322 331 330 327 326 326 324 321
316 316 316 317 314 321 319 320 318 322 323 322 321 320 319 320 320 321 321 320 319 320 320 321 320 321 322 321 318 317 316 316 316 316 318 318 324 324 330 328 327 325 326 325 322
315 316 316 318 319 320 320 317 323 325 327 323 321 321 319 318 319 321 321 320 322 321 320 322 323 322 322 320 320 320 316 316 319 318 320 321 332 328 328 327 326 326 324 324 322
314 316 315 320 320 321 321 319 320 325 322 322 322 321 321 321 321 322 321 320 322 322 322 321 322 321 321 321 320 320 317 316 318 318 317 320 328 327 326 326 325 324 324 322 321
314 316 318 323 323 323 318 319 321 323 322 321 322 321 323 322 321 319 320 322 321 321 319 321 321 321 322 321 320 318 317 318 314 321 323 319 326 327 329 327 325 325 324 324 323
316 316 319 323 321 321 318 318 322 324 321 322 322 323 323 324 324 322 322 320 321 319 319 318 317 319 319 320 320 316 318 318 314 317 319 320 320 323 323 326 326 325 326 326 325
316 314 322 320 319 317 317 321 323 323 320 320 320 321 322 323 323 323 322 321 320 320 320 320 318 321 323 320 321 320 320 316 317 318 319 320 319 322 321 321 325 326 326 326 325
317 316 316 316 316 314 318 322 322 322 322 321 321 320 320 322 321 322 321 319 320 320 321 318 318 320 319 319 319 322 323 322 315 314 318 317 318 319 321 321 321 321 321 323 324
316 315 322 322 319 317 319 321 321 320 320 321 320 320 319 320 319 321 320 320 320 320 319 319 316 318 318 320 320 321 321 319 320 318 318 318 319 318 318 318 319 317 319 324 324
315 316 321 317 318 318 319 319 320 322 320 319 320 320 320 320 320 321 322 319 319 320 319 313 315 319 319 321 321 321 321 320 320 317 320 318 317 315 313 314 317 320 323 322 322
316 319 322 320 319 319 316 319 321 321 320 321 319 320 319 320 321 322 322 321 321 318 318 315 318 321 322 322 321 322 320 320 319 319 315 313 315 314 320 322 322 322 321 321 321
318 320 321 319 317 318 317 320 321 320 321 320 318 318 320 320 320 320 320 320 320 318 318 318 317 320 321 322 321 319 319 319 318 315 314 314 313 318 320 321 322 322 322 321 321
Wind_Speed
16 14 12 10 8 8 9 11 12 10 8 7 6 6 6 6 7 7 5 2 3 5 2 4 5 5 2 4 3 3 4 3 4 4 4 12 7 18 15 22 13 12 24 27 25
17 14 11 9 7 8 10 12 11 9 6 5 4 4 5 4 6 8 5 3 4 3 5 1 2 5 4 3 2 3 4 6 4 4 4 13 6 9 10 21 18 23 19 33 31
16 14 11 9 7 8 10 12 10 8 5 3 2 3 1 2 2 3 1 4 4 3 5 1 4 4 3 9 3 1 5 5 3 5 14 10 11 2 19 4 25 26 27 33 32
17 14 11 9 7 7 9 10 10 8 4 2 1 2 1 2 2 5 3 1 2 5 6 2 4 4 4 3 3 2 9 7 7 6 5 4 7 3 15 17 17 18 21 21 22
20 15 11 8 6 7 9 10 10 7 4 1 2 3 3 2 2 5 2 3 5 8 4 5 8 3 2 5 11 2 2 3 5 5 4 2 6 7 11 19 15 15 14 16 15
22 17 12 8 7 7 9 9 8 6 3 3 4 4 2 2 5 3 8 8 6 2 3 12 6 10 3 4 1 6 3 5 4 5 2 4 2 5 11 19 21 22 23 17 12
24 19 12 9 7 7 8 8 6 5 3 4 4 2 3 2 3 5 6 7 4 5 9 9 6 5 9 8 14 3 4 7 5 2 2 1 6 3 10 25 31 32 30 28 21
27 20 13 10 8 7 7 6 5 4 3 5 4 4 2 3 2 2 1 1 4 2 3 5 6 6 3 10 10 6 5 4 6 3 4 4 8 9 18 34 29 35 32 30 28
28 22 14 10 8 8 5 5 5 4 3 1 3 4 1 3 9 5 4 5 1 2 0 4 3 3 6 4 6 7 3 4 10 9 5 4 4 22 41 43 28 29 31 30 28
26 23 15 10 9 6 6 6 5 2 3 6 9 7 3 2 5 5 2 3 4 3 5 5 1 3 4 5 2 4 3 5 5 2 6 3 1 9 23 29 26 25 26 27 31
25 22 17 10 7 4 9 6 8 1 10 13 22 14 5 7 4 7 5 5 6 4 1 2 5 2 7 6 7 3 2 5 6 6 5 2 3 13 18 22 16 20 28 28 29
25 23 16 10 5 3 7 7 9 12 10 18 18 20 15 5 6 6 8 4 2 4 3 6 4 8 8 4 2 7 6 6 4 8 5 3 6 8 11 12 15 17 21 23 23
24 25 18 7 5 5 9 7 11 14 3 15 11 10 13 9 9 14 7 4 6 4 6 7 7 5 2 3 5 4 7 4 1 5 2 2 4 6 9 16 17 19 20 21 21
23 23 22 11 5 7 11 10 11 13 4 6 5 6 14 10 6 15 7 6 3 2 1 4 2 4 5 4 4 4 1 5 5 5 2 4 3 1 7 6 11 14 17 19 19
22 23 22 15 11 6 13 11 10 3 2 3 7 6 10 10 9 6 6 3 1 4 4 3 3 1 6 3 3 4 1 3 1 3 4 6 3 3 9 2 1 7 13 15 15
23 23 22 18 10 7 12 13 8 5 5 3 9 7 5 7 3 11 4 3 3 2 3 3 3 4 5 3 4 2 5 8 6 4 2 2 5 5 5 6 4 7 9 11 12
24 22 22 17 11 8 11 10 4 3 4 5 6 7 6 5 6 7 5 3 3 3 3 5 6 4 4 5 8 9 7 4 5 4 6 5 4 2 8 12 12 14 13 10 8
25 24 21 13 3 4 9 4 2 5 6 4 5 6 7 7 5 8 6 3 3 3 2 4 4 5 4 4 4 3 6 5 4 3 5 6 1 3 10 21 22 20 16 10 6
25 24 21 6 5 4 3 3 6 4 5 7 4 4 3 4 5 4 6 4 2 2 6 3 2 4 5 2 4 3 2 5 4 2 2 1 3 4 6 8 14 20 17 13 9
26 25 15 11 10 8 3 5 4 4 4 3 4 5 4 5 3 6 5 4 3 3 4 1 2 2 4 3 2 5 4 3 3 2 3 4 4 4 10 11 8 13 20 17 15
20 13 3 8 14 9 3 6 5 11 1 3 2 3 3 3 3 1 4 5 3 4 11 3 4 5 3 2 1 4 2 5 4 4 4 2 5 5 8 12 14 19 27 25 21
9 5 3 4 8 2 3 5 4 7 3 1 2 2 2 3 2 4 3 3 4 4 3 1 4 1 6 6 3 2 3 4 5 5 1 4 5 4 10 16 24 28 29 26 23
13 11 14 13 2 4 6 6 18 8 3 2 3 3 3 2 2 3 3 4 8 4 7 4 2 3 8 6 7 4 4 2 4 3 4 4 5 3 7 11 14 14 22 27 27
5 3 5 5 7 4 3 4 5 3 4 5 3 5 5 5 5 2 4 6 7 6 8 7 3 6 6 4 3 4 7 4 4 3 4 6 7 10 5 7 15 7 3 12 16
5 6 4 3 4 6 1 2 2 1 2 5 4 2 1 1 3 4 6 3 8 10 4 5 4 3 4 3 2 2 6 9 4 6 5 6 5 8 8 5 6 21 21 16 9
5 3 6 17 11 6 1 3 2 1 2 3 5 8 8 5 2 2 1 3 2 4 2 3 2 2 2 3 5 6 9 10 9 11 5 5 1 5 17 23 22 16 15 13 11
7 11 7 5 4 2 4 3 2 9 4 7 8 6 7 3 4 3 2 3 4 6 3 4 5 4 4 3 4 6 5 5 3 6 4 5 2 4 8 15 17 15 12 10 9
Wind_Direction
351 343 343 342 344 346 347 341 330 318 303 281 264 248 246 257 270 267 251 212 336 341 85 127 130 132 277 297 297 223 63 326 287 324 294 359 70 73 100 93 74 102 141 156 156
350 343 341 341 347 347 348 346 337 329 313 284 259 243 245 272 283 268 209 295 344 335 156 99 68 328 278 262 321 82 98 216 227 255 39 46 74 99 100 99 99 122 136 158 162
351 345 340 344 349 350 351 351 349 343 334 304 264 235 239 311 329 359 234 263 312 248 174 11 359 330 230 264 233 205 195 151 251 60 43 28 62 97 114 34 151 155 154 165 159
356 348 342 346 349 348 353 357 356 354 350 329 237 157 146 107 165 337 311 330 289 180 160 299 352 354 350 322 300 277 248 220 182 81 58 40 101 72 137 160 153 172 158 142 148
0 355 348 346 341 348 354 357 359 4 358 37 127 137 110 325 274 354 108 84 107 137 169 333 335 335 253 287 328 163 291 98 96 88 73 115 317 136 167 159 153 111 106 98 103
5 360 357 353 350 348 352 355 358 8 23 93 123 131 101 6 54 65 106 85 95 87 0 345 293 320 297 299 90 311 95 33 17 10 339 144 224 91 185 153 103 114 97 104 112
8 6 4 5 2 358 353 356 6 20 62 102 114 121 277 85 107 61 82 62 22 340 347 8 3 322 336 330 326 303 16 0 313 298 289 104 345 233 173 109 102 102 92 84 89
10 10 9 12 8 1 355 4 21 41 84 100 67 340 259 173 178 275 100 146 20 256 312 346 320 297 295 320 349 15 48 27 292 84 227 99 282 289 145 120 105 104 98 88 80
9 10 11 10 5 357 13 28 40 69 105 64 343 353 303 234 223 217 261 261 277 106 95 339 316 334 345 62 5 3 255 246 299 209 142 109 276 51 124 122 119 113 108 99 90
7 8 8 7 2 17 34 24 23 15 299 292 282 306 212 194 135 203 242 239 213 271 266 256 281 43 29 68 238 273 316 279 218 227 75 88 53 68 117 120 121 118 115 107 101
4 3 2 358 5 45 24 27 1 315 317 287 289 278 306 158 147 183 196 189 252 252 181 345 59 241 252 210 201 240 6 20 15 0 98 114 41 116 104 99 99 112 122 126 115
2 359 357 345 355 23 12 14 9 314 297 291 286 275 264 168 187 197 181 239 226 231 106 20 218 237 209 184 53 33 56 356 341 4 74 32 53 104 85 86 100 89 81 85 86
355 357 350 339 342 3 337 348 357 355 276 297 253 242 209 197 220 198 206 252 230 264 255 169 227 194 123 42 78 31 80 67 96 309 50 108 0 102 68 85 87 84 84 77 72
349 350 349 336 315 355 14 356 339 319 46 273 205 237 208 210 224 212 193 240 342 249 202 161 257 132 62 69 89 76 350 53 22 61 261 77 267 141 110 60 68 76 73 72 66
341 342 345 326 304 343 345 333 338 319 351 219 201 229 207 181 143 177 184 225 128 295 49 216 128 108 87 153 96 183 42 24 323 20 45 352 70 292 115 92 106 100 84 74 72
330 338 334 328 283 332 337 321 310 47 255 228 164 173 136 197 209 152 185 194 258 315 355 239 249 165 143 93 52 317 27 17 35 77 3 221 180 211 195 177 152 135 117 98 89
321 329 327 318 275 331 319 333 51 161 297 201 174 167 174 218 180 167 178 178 163 79 334 0 352 356 105 76 17 64 58 355 354 7 223 297 71 246 123 139 159 166 165 144 116
316 321 317 305 169 316 340 47 184 262 274 284 183 169 180 189 236 190 138 157 93 126 93 124 3 357 17 111 153 72 134 150 224 229 274 335 146 201 154 162 164 163 160 155 140
316 318 315 241 184 266 318 65 214 243 325 352 357 116 222 189 151 121 164 165 113 109 130 134 163 17 75 102 101 312 9 177 127 322 74 204 69 45 158 165 165 167 171 179 180
324 323 319 173 203 226 94 231 253 277 318 35 41 36 23 321 157 146 166 360 90 68 119 175 119 343 19 40 328 149 173 41 7 201 239 286 208 218 189 186 188 186 194 200 207
327 320 232 190 191 190 166 228 289 299 7 57 110 44 33 356 14 61 46 10 85 77 69 79 88 294 44 65 353 6 38 65 115 139 167 311 280 235 180 189 194 203 207 209 216
320 317 161 81 260 177 188 208 221 255 115 82 82 31 14 33 35 68 106 107 111 114 85 15 130 236 231 271 184 144 130 114 117 276 131 152 269 234 187 188 196 211 213 219 222
318 280 258 276 195 261 270 265 262 219 68 69 64 61 16 105 77 81 121 138 122 103 160 177 43 33 344 354 5 45 12 109 123 83 200 141 263 248 248 206 214 223 211 222 223
300 324 298 299 240 189 261 274 326 102 119 105 117 62 59 30 22 16 129 190 143 121 119 110 111 156 194 181 218 321 325 311 147 126 224 212 249 285 257 238 246 294 165 207 221
237 246 286 298 320 314 17 276 1 344 80 115 48 66 251 228 352 30 27 83 40 135 79 101 142 188 236 279 6 287 297 301 292 227 178 247 234 271 283 317 54 106 104 107 115
255 268 318 303 292 269 91 283 267 350 92 75 95 44 67 86 58 89 45 50 146 246 95 15 202 146 292 303 337 306 284 269 274 276 166 141 213 28 79 83 80 86 92 84 70
230 261 269 270 296 48 235 245 236 121 60 71 127 104 73 102 74 40 24 130 139 152 144 131 133 113 250 253 335 319 256 238 207 18 140 74 304 97 69 84 93 89 87 93 92